Location: Coisnauté
(47.5516°N, 1.9893°W)
Time: 04:38:21
(UTC+00:00)

Daily predictions for brighter satellites

Satellite Brightness Start Highest point End
(mag) Time Altitude Azimuth Time Altitude Azimuth Time Altitude Azimuth
NOSS 3-1 (A) 4.2 03:23:44 67° ESE 03:23:44 67° ESE 03:31:25 10° SE
Cosmos 1980 Rocket 3.9 03:23:20 27° ESE 03:23:21 27° ESE 03:28:01 10° NE
USA 281 4.5 03:22:27 10° ESE 03:28:17 36° NE 03:32:52 16° N
ATLAS 3B R/B 3.4 03:27:51 52° N 03:29:01 57° NE 03:36:39 10° ESE
USA 267 4.1 03:33:02 10° ENE 03:38:49 39° N 03:38:49 39° N
Cosmos 1697 Rocket 3.8 03:42:44 38° NE 03:42:44 38° NE 03:46:09 10° NNE
ATLAS CENTAUR R/B 4.4 03:43:56 11° NE 03:43:56 11° NE 03:44:10 10° NE
Lacrosse 4 Rocket 4.0 03:49:00 18° ESE 03:49:00 18° ESE 03:50:12 10° ESE
ATLAS 2AS CENTAUR R/B 2.8 03:47:22 78° ENE 03:47:22 78° ENE 03:53:55 10° NE
USA 59 Rocket 2.4 03:53:36 18° NE 03:53:36 18° NE 03:56:02 10° E
CZ-2C R/B 4.2 03:54:53 10° NNE 03:56:42 23° NNE 03:56:42 23° NNE
Cosmos 2263 Rocket 2.5 04:00:01 62° ENE 04:00:01 62° ENE 04:05:29 10° SE
Cosmos 2082 4.3 04:03:04 47° NNE 04:04:10 55° ENE 04:09:43 10° SE
Cosmos 2227 Rocket 4.3 04:13:54 14° S 04:13:54 14° S 04:14:37 10° S
Cosmos 2266 Rocket 4.4 04:03:49 10° S 04:10:08 65° E 04:16:28 10° NNE
Cosmos 2285 Rocket 4.2 04:11:34 57° S 04:11:34 57° S 04:16:34 10° SSE
BREEZE-M DEB (TANK) 4.2 04:14:05 25° ENE 04:14:05 25° ENE 04:16:17 10° E
USA 229 DEB 4.2 04:21:54 30° NNW 04:25:58 67° NE 04:34:00 10° SE
USA 229 4.2 04:22:00 29° NNW 04:26:05 66° NE 04:34:05 10° SE
Cosmos 1484 Rocket 4.3 04:25:14 10° NNE 04:28:24 31° E 04:30:40 16° SSE
IRAS Rocket 4.2 04:28:58 10° NNE 04:34:30 81° ESE 04:40:03 10° SSW
Cosmos 2219 3.1 04:35:43 67° WSW 04:35:44 67° WSW 04:41:20 10° SSE
S3M 3.8 04:29:30 10° N 04:35:47 79° W 04:41:57 10° S
DELTA 2 R/B (1) 4.4 04:35:55 36° SSW 04:36:33 37° S 04:41:38 10° ESE
BREEZE-M DEB (TANK) 4.3 04:39:16 15° SE 04:39:16 15° SE 04:40:30 10° ESE
Cosmos 1417 Rocket 4.3 04:33:27 10° NNW 04:39:30 63° W 04:45:31 10° S
H-2A R/B 1.9 04:38:32 10° N 04:43:10 62° NW 04:43:10 62° NW
BREEZE-M DEB (TANK) 3.4 04:45:30 42° SE 04:45:30 42° SE 04:49:49 10° ESE
PAYLOAD A 4.4 04:43:09 10° N 04:47:56 48° NW 04:47:56 48° NW
SL-8 R/B 4.1 04:49:43 44° SSW 04:50:50 55° SSE 04:55:30 10° ENE
Meteor 1-24 Rocket 3.5 04:45:51 10° SSW 04:51:21 79° WNW 04:56:43 10° N
ARGOS 3.3 04:49:11 10° NNE 04:54:38 74° ESE 05:00:03 10° S
Thor Agena Rocket 3.4 04:51:00 10° NNE 04:56:15 89° WNW 05:01:23 10° SSW
Meteor 2-20 4.4 04:52:48 10° NNW 04:58:51 62° W 05:04:50 10° S
Cosmos 1844 Rocket 3.8 04:54:08 10° NNW 04:59:30 42° NE 05:04:48 10° SE
NOSS 2-1 (C) 4.0 04:58:21 35° N 04:59:40 54° NE 05:04:27 10° SE
Meteor 2-20 Rocket 4.2 04:53:50 10° N 04:59:47 83° W 05:05:31 10° S
Cosmos 2322 Rocket 4.5 04:57:51 10° SSE 05:02:22 25° ESE 05:06:53 10° NE
Sich 1 Rocket 4.4 05:01:03 10° N 05:05:26 53° ENE 05:09:50 10° SSE
Cosmos 1980 Rocket 2.3 05:05:10 37° WSW 05:07:01 52° WNW 05:12:31 10° NNE
IRS-1D 3.7 05:04:23 10° N 05:09:05 43° WNW 05:09:55 39° W
Cosmos 2369 3.6 05:07:06 20° SW 05:11:08 67° WNW 05:16:47 10° NNE
USA 281 3.2 05:06:05 10° S 05:12:31 58° WSW 05:19:00 10° NNW
Cosmos 1378 Rocket 3.6 05:10:39 10° S 05:15:03 79° E 05:19:29 10° NNE
Cosmos 1674 Rocket 3.9 05:12:49 10° S 05:17:03 66° E 05:21:23 10° NNE
FengYun 1-2 T 4.3 05:11:59 10° NNE 05:17:39 81° ESE 05:23:19 10° SSW
ATLAS CENTAUR R/B 2.3 05:18:24 26° NNW 05:18:24 26° NNW 05:21:13 10° NNE
Cosmos 371 Rocket 3.3 05:16:34 24° NW 05:19:20 56° WSW 05:24:03 10° S
ATLAS 3B R/B 3.3 05:15:08 23° WNW 05:19:46 46° WSW 05:26:58 10° S
Meteor 2-5 Rocket 3.9 05:14:15 10° SSW 05:19:50 50° WNW 05:25:20 10° N
Okean 2 Rocket 3.1 05:16:37 10° N 05:21:08 81° E 05:25:34 10° SSE
ARIANE 6 FM1 Upper Stage 3.6 05:17:06 10° SSW 05:21:10 49° SE 05:25:17 10° NE
USA 267 3.8 05:15:00 10° E 05:21:17 53° NNE 05:26:09 18° NW
Cosmos 1992 Rocket 3.9 05:18:33 10° SSW 05:23:46 78° WNW 05:29:02 10° NNE
COSMO-SKYMED 1 2.4 05:19:40 10° S 05:24:00 81° WSW 05:28:23 10° NNW
Cosmos 1939 Rocket 3.0 05:20:31 10° N 05:24:01 40° WNW 05:24:25 39° W
Cosmos 1486 Rocket 4.2 05:19:07 10° NNW 05:24:20 72° ENE 05:29:32 10° SSE
Lacrosse 4 Rocket 2.4 05:24:51 27° WSW 05:24:51 27° WSW 05:27:51 10° S
Cosmos 332 Rocket 4.3 05:20:05 10° NNW 05:24:56 60° ENE 05:29:44 10° SE
Cosmos 1697 Rocket 3.8 05:24:30 23° NW 05:25:02 23° NW 05:29:32 10° N
NOAA 12 4.4 05:21:09 10° NNE 05:26:30 73° ESE 05:31:48 10° S
Cosmos 1844 4.3 05:22:42 10° NNW 05:28:18 59° ENE 05:33:57 10° SE
NOSS 2-1 (D) 3.4 05:29:47 25° NW 05:32:00 82° SW 05:37:09 10° SE
Cosmos 2098 Rocket 3.0 05:28:48 10° N 05:32:38 62° ENE 05:35:51 10° SSE
Cosmos 2242 Rocket 4.3 05:31:43 24° WSW 05:33:16 31° WNW 05:37:13 10° N
Cosmos 2227 4.1 05:28:57 10° NNW 05:34:38 78° WSW 05:40:19 10° SSE
Cosmos 1818 4.0 05:32:02 23° W 05:34:58 42° NW 05:40:11 10° NNE
SJ-11-01 4.3 05:32:06 10° NNE 05:36:47 83° ESE 05:41:27 10° SSW
CZ-2C R/B 4.1 05:34:19 10° NNW 05:35:57 15° NW 05:35:57 15° NW
Cosmos 2315 Rocket 4.4 05:31:38 10° NNW 05:37:31 40° W 05:43:19 10° SSW
ATLAS 2AS CENTAUR R/B 3.5 05:34:49 21° WNW 05:38:33 33° NNW 05:44:46 10° NE
USA 59 Rocket 0.0 05:39:52 21° NW 05:42:28 70° SW 05:47:44 10° SSE
NOSS 3 (A) 4.0 05:42:42 46° E 05:42:42 46° E 05:44:03 10° NE
Cosmos 2263 Rocket 3.3 05:41:46 20° WNW 05:43:21 23° WSW 05:47:39 10° SSW
Cosmos 1455 Rocket 4.3 05:39:40 10° N 05:43:51 42° ENE 05:47:59 10° SSE
Nadezhda 1 Rocket 4.4 05:38:35 10° N 05:44:43 65° ENE 05:50:45 10° SSE
Cosmos 2237 4.1 05:41:01 10° SSW 05:46:42 81° WNW 05:52:26 10° NNE
CBERS-1 4.1 05:41:57 10° N 05:46:57 54° WNW 05:51:55 10° SW
SL-08 R/B 4.4 05:44:45 10° S 05:50:51 87° W 05:57:03 10° N
Cosmos 2360 Rocket 3.2 05:48:45 10° S 05:54:08 50° ESE 05:59:33 10° NE
Cosmos 1437 Rocket 2.9 05:50:48 10° SW 05:54:11 40° WNW 05:57:37 10° N
Cosmos 2151 Rocket 4.0 05:50:03 10° NNW 05:54:13 41° W 05:58:23 10° SSW
TIMED 4.4 05:51:46 10° NNW 05:56:04 67° WSW 06:00:19 10° S
SL-08 RB Rocket 4.3 05:57:12 10° N 06:01:23 35° WNW 06:05:33 10° SW
Cosmos 1484 Rocket 3.9 05:59:07 10° NNW 06:01:44 20° WNW 06:04:19 10° WSW
Cosmos 1606 2.4 05:59:10 10° N 06:02:34 81° E 06:05:56 10° SSE
Okean 1 Rocket 3.2 05:58:16 10° NNW 06:02:39 56° W 06:07:00 10° S
Cosmos 1354 Rocket 4.3 05:58:15 10° NNW 06:03:35 74° ENE 06:08:51 10° SSE
BREEZE-M DEB (TANK) 2.7 05:59:20 14° W 06:04:08 68° N 06:06:25 10° E
Cosmos 2084 Rocket 3.4 06:00:11 10° SW 06:04:29 71° NW 06:08:42 10° NE
SL-16 R/B 2.2 06:00:42 10° SW 06:06:22 72° WNW 06:12:03 10° NNE
Cosmos 292 Rocket 4.4 06:04:23 10° NNW 06:09:08 58° ENE 06:13:53 10° SE
Gbstr 26 Del rocket 3.4 06:04:53 10° WSW 06:09:34 82° NNW 06:15:26 10° ENE
NOSS 2-1 (E) 4.1 06:06:50 12° NW 06:10:14 43° SW 06:15:20 10° SSE
CZ-2D R/B 3.0 06:08:17 10° NNE 06:11:50 86° WNW 06:15:21 10° SSW
EXPRESS MD2 3.0 06:10:01 10° SW 06:13:17 54° SSE 06:15:35 10° ENE
TRACE 4.3 06:10:12 10° SSE 06:13:26 89° WSW 06:16:44 10° NNW
ADEOS Rocket 3.7 06:08:26 10° NNE 06:15:44 74° ESE 06:22:15 10° S
CZ-2D R/B 3.6 06:13:30 10° NNE 06:17:26 77° ESE 06:21:26 10° S
Geosat FO 4.4 06:15:20 10° SSE 06:18:43 67° WSW 06:21:59 10° NW
SJ-12 3.8 06:16:07 10° N 06:20:02 64° WNW 06:23:56 10° SSW
H-2A R/B 3.8 06:20:50 10° NW 06:21:51 11° NW 06:22:51 10° WNW
USA 215 3.4 06:22:36 10° NE 06:29:12 85° SE 06:35:44 10° SW
Cosmos 2333 Rocket 2.3 06:26:30 10° SSW 06:32:14 87° WNW 06:37:58 10° NNE
SL-8 R/B 3.7 06:28:24 10° W 06:33:09 81° N 06:37:57 10° E
ARIANE 5 R/B 2.7 06:28:23 10° N 06:33:15 49° WNW 06:38:09 10° SW
ARGOS 4.4 06:30:29 10° NNW 06:34:18 20° WNW 06:38:06 10° WSW
Cosmos 2278 4.2 06:32:15 10° WSW 06:37:30 39° NW 06:42:47 10° NNE
